CT1ETE Weather Reports


time (UTC)temp
C
wind
direction
speed
KPH
gust
KPH
rain 1hr
cm
rain 24hr
cm
rain mn
cm
humidity
%
barometer
mb
20190616065151 14 109 0.0 0.0 0.00 0.00 0.00 79 1019.4
20190616063653 13 128 0.0 0.0 0.00 0.00 0.00 80 1019.2
20190616062150 12 192 0.0 0.0 0.00 0.00 0.00 83 1019.2
20190616060649 12 193 0.0 0.0 0.00 0.00 0.00 84 1019.2
20190616055147 11 193 0.0 0.0 0.00 0.00 0.00 86 1019.2
20190616053645 11 130 0.0 0.0 0.00 0.00 0.00 86 1019.1
20190616052143 11 130 0.0 0.0 0.00 0.00 0.00 86 1019.0
20190616051418 11 130 0.0 0.0 0.00 0.00 0.00 87 1019.0
20190616050643 11 130 0.0 0.0 0.00 0.00 0.00 87 1019.0
20190616045143 11 130 0.0 0.0 0.00 0.00 0.00 87 1018.8
20190616044417 11 202 0.0 0.0 0.00 0.00 0.00 86 1018.8
20190616043641 11 202 0.0 0.0 0.00 0.00 0.00 86 1018.8
20190616042141 11 202 0.0 0.0 0.00 0.00 0.00 86 1018.9
20190616040641 11 202 0.0 0.0 0.00 0.00 0.00 85 1019.0
20190616035914 11 130 0.0 0.0 0.00 0.00 0.00 84 1019.0
20190616035139 11 130 0.0 0.0 0.00 0.00 0.00 84 1019.0
20190616033639 12 81 0.0 0.0 0.00 0.00 0.00 83 1018.9
20190616032139 11 81 0.0 0.0 0.00 0.00 0.00 83 1019.1
20190616030637 11 81 0.0 0.0 0.00 0.00 0.00 84 1019.2
20190616025137 11 81 0.0 0.0 0.00 0.00 0.00 83 1019.3
20190616023637 11 81 0.0 0.0 0.00 0.00 0.00 83 1019.4
20190616022137 11 81 0.0 0.0 0.00 0.00 0.00 83 1019.5
20190616020635 11 98 0.0 0.0 0.00 0.00 0.00 83 1019.8
20190616015134 11 101 0.0 0.0 0.00 0.00 0.00 83 1020.0
20190616013633 11 101 0.0 0.0 0.00 0.00 0.00 83 1020.1
20190616012133 11 194 0.0 0.0 0.00 0.00 0.00 83 1020.2
20190616010633 12 194 0.0 0.0 0.00 0.00 0.00 81 1020.4
20190616005130 12 194 0.0 0.0 0.00 0.00 0.00 81 1020.6
20190616003631 12 194 0.0 0.0 0.00 0.00 0.00 80 1020.6
20190616002129 12 213 0.0 0.0 0.00 0.00 0.00 80 1020.7
20190616000629 12 212 0.0 0.0 0.00 0.00 0.00 79 1020.7
20190615235129 12 196 0.0 0.0 0.00 0.00 0.00 78 1020.9
20190615234404 13 124 0.0 0.0 0.00 0.00 0.00 77 1020.9
20190615233629 13 124 0.0 0.0 0.00 0.00 0.00 77 1020.9
20190615232128 13 216 0.0 0.0 0.00 0.00 0.00 75 1021.0
20190615230628 13 216 0.0 0.0 0.00 0.00 0.00 75 1021.2
20190615225129 13 216 0.0 0.0 0.00 0.00 0.00 75 1021.3
20190615223627 13 216 0.0 0.0 0.00 0.00 0.00 74 1021.4
20190615222127 13 216 0.0 0.0 0.00 0.00 0.00 73 1021.4
20190615220625 13 216 0.0 0.0 0.00 0.00 0.00 73 1021.4
20190615215124 13 216 0.0 0.0 0.00 0.00 0.00 72 1021.6
20190615160616 20 266 11.3 20.9 0.00 0.00 0.00 54 1021.4
20190615155116 20 232 12.9 22.5 0.00 0.00 0.00 54 1021.4
20190615154352 19 267 14.5 25.7 0.00 0.00 0.00 57 1021.6
20190615153616 19 267 14.5 25.7 0.00 0.00 0.00 57 1021.6
20190615152116 18 255 12.9 22.5 0.00 0.00 0.00 58 1021.7
20190615150616 19 246 4.8 16.1 0.00 0.00 0.00 55 1021.9
20190615145114 19 242 4.8 17.7 0.00 0.00 0.00 57 1021.9
20190615143614 18 242 8.0 19.3 0.00 0.00 0.00 58 1021.9
20190615142114 19 249 6.4 17.7 0.00 0.00 0.00 57 1022.0
20190615140614 18 266 8.0 20.9 0.00 0.00 0.00 60 1022.0
20190615135115 18 237 12.9 22.5 0.00 0.00 0.00 60 1022.0
20190615133614 18 241 8.0 19.3 0.00 0.00 0.00 60 1021.9
20190615132114 18 271 4.8 17.7 0.00 0.00 0.00 57 1021.9
20190615130614 18 264 6.4 17.7 0.00 0.00 0.00 52 1021.9
20190615125112 19 188 3.2 19.3 0.00 0.00 0.00 51 1022.0
20190615124348 18 266 4.8 14.5 0.00 0.00 0.00 55 1022.0
20190615123612 18 266 4.8 14.5 0.00 0.00 0.00 55 1022.0
20190615122112 18 249 3.2 17.7 0.00 0.00 0.00 56 1022.2
20190615120611 18 288 4.8 17.7 0.00 0.00 0.00 55 1022.2
20190615115111 18 284 0.0 1.6 0.00 0.00 0.00 54 1022.2
20190615113612 17 269 0.0 4.8 0.00 0.00 0.00 55 1022.2
20190615112109 18 216 1.6 14.5 0.00 0.00 0.00 57 1022.2
20190615110610 18 282 1.6 12.9 0.00 0.00 0.00 57 1022.2
20190615105110 17 261 3.2 14.5 0.00 0.00 0.00 60 1022.2
20190615103609 17 309 0.0 11.3 0.00 0.00 0.00 58 1022.1
20190615102108 17 263 0.0 0.0 0.00 0.00 0.00 59 1022.1
20190615100607 17 200 0.0 17.7 0.00 0.00 0.00 58 1022.1
20190615095108 16 5 0.0 0.0 0.00 0.00 0.00 65 1022.1
20190615093608 16 307 0.0 0.0 0.00 0.00 0.00 64 1022.0
20190615092107 16 213 1.6 8.0 0.00 0.00 0.00 63 1022.0
20190615090608 16 225 0.0 0.0 0.00 0.00 0.00 65 1021.9
20190615085840 15 232 0.0 0.0 0.00 0.00 0.00 67 1021.9
20190615085105 15 232 0.0 0.0 0.00 0.00 0.00 67 1021.9
20190615083605 15 200 0.0 0.0 0.00 0.00 0.00 72 1021.9
20190615082105 15 232 0.0 8.0 0.00 0.00 0.00 75 1021.8
20190615080606 13 237 0.0 11.3 0.00 0.00 0.00 80 1021.8
20190615075103 13 234 1.6 6.4 0.00 0.00 0.00 82 1021.7
20190615074338 13 220 0.0 4.8 0.00 0.00 0.00 86 1021.6
20190615073603 13 220 0.0 4.8 0.00 0.00 0.00 86 1021.6
20190615072102 13 239 1.6 8.0 0.00 0.00 0.00 83 1021.4
20190615070559 13 247 0.0 6.4 0.00 0.00 0.00 87 1021.3